period_start,C,m1,H,J0,J1,J2,J3,J4,J5,JA,JB,JC,JD,JJ,JK,JN,#
2016-07-20 00:04:11,0.04,0.02,0.00,27.84,32.13,34.95,14.28,47.38,1013.74,2017.83,3423.99,3058.99,3474.07,600.17,584.88,2.42,0000 0000 0000 0000 000000
2016-07-20 00:09:13,0.00,0.02,0.00,27.83,32.11,34.91,14.22,47.37,1013.71,2017.97,3424.00,3058.98,3474.06,599.89,584.66,2.47,0000 0000 0000 0000 000000
2016-07-20 00:14:14,0.00,0.02,0.00,27.78,32.08,34.87,14.26,47.55,1013.78,2017.99,3424.00,3058.99,3474.06,600.18,585.08,2.52,0000 0000 0000 0000 000000
2016-07-20 00:19:16,0.00,0.02,0.00,27.78,32.05,34.85,14.23,47.58,1013.86,2017.99,3423.99,3058.99,3474.13,599.58,584.61,2.57,0000 0000 0000 0000 000000
2016-07-20 00:24:17,-0.01,0.02,0.00,27.78,32.02,34.83,14.24,47.65,1013.79,2018.00,3424.02,3059.02,3474.65,599.89,584.81,2.62,0000 0000 0000 0000 000000
2016-07-20 00:29:18,-0.00,0.02,0.00,27.77,32.00,34.80,14.21,47.46,1013.73,2018.01,3424.14,3059.20,3474.94,600.16,585.07,2.67,0000 0000 0000 0000 000000
2016-07-20 00:34:20,-0.01,0.02,0.00,27.76,31.98,34.78,14.24,47.54,1013.78,2018.06,3424.22,3059.57,3474.98,600.05,585.01,2.72,0000 0000 0000 0000 000000
2016-07-20 00:39:21,0.00,0.02,0.00,27.75,31.95,34.75,14.28,47.67,1013.77,2018.21,3424.51,3059.85,3474.99,600.04,585.05,2.77,0000 0000 0000 0000 000000
2016-07-20 00:44:23,0.04,0.02,0.00,27.74,31.93,34.74,14.19,47.50,1013.72,2018.62,3424.63,3059.95,3474.99,599.85,584.82,2.82,0000 0000 0000 0000 000000
2016-07-20 00:49:24,0.01,0.02,0.00,27.74,31.91,34.73,14.26,47.52,1013.72,2018.85,3424.85,3059.99,3474.99,600.41,585.33,2.87,0000 0000 0000 0000 000000
2016-07-20 00:54:26,0.01,0.02,0.00,27.73,31.90,34.70,14.22,47.44,1013.72,2018.96,3424.98,3059.99,3475.03,599.82,584.72,2.92,0000 0000 0000 0000 000000
2016-07-20 00:59:27,-0.00,0.02,0.00,27.73,31.87,34.70,14.26,47.50,1013.69,2018.98,3424.98,3059.99,3475.11,600.16,585.14,2.97,0000 0000 0000 0000 000000
2016-07-20 01:04:28,0.00,0.02,0.00,27.73,31.86,34.67,14.18,47.53,1013.71,2018.99,3424.99,3059.99,3475.23,599.88,584.88,3.02,0000 0000 0000 0000 000000
2016-07-20 01:09:29,0.00,0.02,0.00,27.72,31.85,34.67,14.26,47.45,1013.70,2018.99,3424.99,3060.01,3475.42,600.17,585.16,3.07,0000 0000 0000 0000 000000
2016-07-20 01:14:30,-0.00,0.02,0.00,27.74,31.82,34.65,14.21,47.42,1013.70,2018.99,3424.99,3060.05,3475.81,600.08,584.96,3.12,0000 0000 0000 0000 000000
2016-07-20 01:19:32,0.00,0.02,0.00,27.73,31.82,34.64,14.21,47.23,1013.70,2018.99,3424.99,3060.03,3475.76,599.88,584.90,3.17,0000 0000 0000 0000 000000
2016-07-20 01:24:33,0.00,0.02,0.00,27.74,31.80,34.62,14.29,47.35,1013.69,2019.00,3424.99,3060.04,3475.69,600.12,585.07,3.22,0000 0000 0000 0000 000000
2016-07-20 01:29:34,-0.01,0.02,0.00,27.72,31.80,34.63,14.25,47.31,1013.69,2019.01,3424.99,3060.14,3475.72,599.83,584.76,3.27,0000 0000 0000 0000 000000
2016-07-20 01:34:35,-0.01,0.02,0.00,27.71,31.77,34.60,14.24,47.40,1013.69,2019.02,3425.01,3060.66,3475.96,600.25,585.16,3.32,0000 0000 0000 0000 000000
2016-07-20 01:39:37,0.01,0.02,0.00,27.71,31.77,34.61,14.29,47.16,1013.70,2019.08,3425.02,3060.82,3475.99,600.08,585.00,3.37,0000 0000 0000 0000 000000
2016-07-20 01:44:38,0.00,0.02,0.00,27.69,31.76,34.61,14.23,47.34,1013.69,2019.14,3425.03,3060.94,3475.99,600.09,585.15,3.42,0000 0000 0000 0000 000000
2016-07-20 01:49:39,0.01,0.02,0.00,27.68,31.75,34.58,14.22,47.22,1013.69,2019.21,3425.03,3060.97,3475.99,600.16,585.21,3.48,0000 0000 0000 0000 000000
2016-07-20 01:54:40,0.01,0.02,0.00,27.68,31.73,34.57,14.23,47.13,1013.79,2019.36,3425.03,3060.98,3475.99,599.80,584.94,3.53,0000 0000 0000 0000 000000
2016-07-20 01:59:41,0.02,0.03,0.00,27.67,31.72,34.56,14.18,47.21,1013.95,2019.62,3425.04,3060.99,3475.99,600.11,585.33,3.58,0000 0000 0000 0000 000000
2016-07-20 02:04:43,0.02,0.03,0.00,27.67,31.71,34.55,14.27,47.13,1013.96,2019.87,3425.04,3060.99,3475.99,600.19,585.51,3.63,0000 0000 0000 0000 000000
2016-07-20 02:09:44,0.00,0.03,0.00,27.64,31.70,34.54,14.25,47.16,1014.01,2019.90,3425.09,3060.99,3476.00,600.02,585.43,3.68,0000 0000 0000 0000 000000
2016-07-20 02:14:46,-0.00,0.03,0.00,27.63,31.69,34.53,14.17,47.20,1014.02,2019.91,3425.13,3060.99,3476.01,599.88,585.26,3.73,0000 0000 0000 0000 000000
2016-07-20 02:19:47,-0.00,0.03,0.00,27.63,31.67,34.53,14.22,47.44,1014.15,2019.94,3425.21,3061.00,3476.02,599.94,585.34,3.78,0000 0000 0000 0000 000000
2016-07-20 02:24:48,-0.00,0.03,0.00,27.61,31.67,34.49,14.24,47.47,1014.14,2019.98,3425.35,3061.01,3476.06,599.91,585.34,3.83,0000 0000 0000 0000 000000
2016-07-20 02:29:49,0.00,0.03,0.00,27.61,31.65,34.51,14.22,47.52,1014.14,2019.98,3425.24,3061.01,3476.03,599.99,585.49,3.88,0000 0000 0000 0000 000000
2016-07-20 02:34:50,-0.00,0.03,0.00,27.60,31.65,34.50,14.25,47.42,1014.08,2019.99,3425.35,3061.02,3476.05,600.21,585.73,3.93,0000 0000 0000 0000 000000
2016-07-20 02:39:51,-0.01,0.03,0.00,27.62,31.64,34.47,14.21,47.17,1014.16,2019.99,3425.51,3061.05,3476.17,599.95,585.40,3.98,0000 0000 0000 0000 000000
2016-07-20 02:44:53,0.00,0.03,0.00,27.60,31.62,34.48,14.29,47.48,1014.16,2019.99,3425.62,3061.08,3476.22,599.96,585.41,4.03,0000 0000 0000 0000 000000
2016-07-20 02:49:54,0.00,0.03,0.00,27.62,31.62,34.46,14.29,47.40,1014.17,2019.99,3425.76,3061.09,3476.21,600.06,585.53,4.08,0000 0000 0000 0000 000000
2016-07-20 02:54:56,-0.01,0.03,0.00,27.62,31.62,34.46,14.24,47.37,1014.17,2019.99,3425.78,3061.16,3476.36,600.11,585.58,4.13,0000 0000 0000 0000 000000
2016-07-20 02:59:57,0.00,0.03,0.00,27.61,31.60,34.44,14.21,47.08,1014.18,2019.99,3425.75,3061.28,3476.26,600.21,585.68,4.18,0000 0000 0000 0000 000000
2016-07-20 03:04:58,0.01,0.03,0.00,27.61,31.60,34.43,14.23,47.18,1014.18,2019.99,3425.39,3061.16,3476.11,600.05,585.49,4.23,0000 0000 0000 0000 000000
2016-07-20 03:10:00,-0.00,0.03,0.00,27.59,31.60,34.41,14.28,47.33,1014.18,2019.99,3425.37,3061.14,3476.05,600.22,585.69,4.28,0000 0000 0000 0000 000000
2016-07-20 03:15:01,-0.01,0.03,0.00,27.61,31.59,34.42,14.19,47.23,1014.19,2019.99,3425.61,3061.37,3476.15,600.16,585.74,4.33,0000 0000 0000 0000 000000
2016-07-20 03:20:02,-0.01,0.03,0.00,27.61,31.58,34.43,14.23,47.18,1014.21,2019.99,3425.78,3061.68,3476.32,599.84,585.39,4.38,0000 0000 0000 0000 000000
2016-07-20 03:25:04,0.01,0.03,0.00,27.61,31.57,34.42,14.20,47.11,1014.24,2020.00,3425.42,3061.64,3476.25,599.90,585.49,4.43,0000 0000 0000 0000 000000
2016-07-20 03:30:05,-0.00,0.03,0.00,27.62,31.57,34.40,14.23,47.23,1014.29,2020.01,3425.46,3061.75,3476.23,599.75,585.30,4.48,0000 0000 0000 0000 000000
2016-07-20 03:35:06,-0.01,0.03,0.00,27.64,31.57,34.36,14.25,47.19,1014.25,2020.01,3425.57,3061.80,3476.45,599.87,585.35,4.53,0000 0000 0000 0000 000000
2016-07-20 03:40:08,0.00,0.02,0.00,27.65,31.57,34.38,14.23,47.09,1014.33,2020.00,3425.74,3061.90,3476.51,600.06,585.55,4.58,0000 0000 0000 0000 000000
2016-07-20 03:45:09,0.01,0.03,0.00,27.66,31.57,34.37,14.19,47.04,1014.40,2020.01,3425.43,3061.78,3476.20,599.94,585.40,4.63,0000 0000 0000 0000 000000
2016-07-20 03:50:11,-0.00,0.03,0.00,27.64,31.57,34.35,14.22,47.10,1014.50,2020.02,3425.60,3061.89,3476.32,599.94,585.58,4.68,0000 0000 0000 0000 000000
2016-07-20 03:55:12,0.01,0.03,0.00,27.65,31.57,34.34,14.21,47.13,1014.64,2020.02,3425.30,3061.86,3476.20,599.82,585.63,4.73,0000 0000 0000 0000 000000
2016-07-20 04:00:13,-0.01,0.03,0.00,27.67,31.57,34.35,14.26,47.21,1014.66,2020.02,3425.40,3061.89,3476.27,600.12,585.77,4.78,0000 0000 0000 0000 000000
2016-07-20 04:05:14,0.07,0.03,0.00,27.67,31.57,34.32,14.29,47.16,1014.66,2020.09,3424.05,3060.93,3475.17,600.11,585.78,4.83,0000 0000 0000 0000 000000
2016-07-20 04:10:16,0.01,0.03,0.00,27.68,31.57,34.37,14.29,47.45,1014.66,2020.05,3423.32,3060.46,3475.00,600.60,586.00,4.88,0000 0000 0000 0000 000000
2016-07-20 04:15:17,0.01,0.03,0.00,27.66,31.57,34.33,14.24,47.43,1014.66,2020.03,3423.19,3060.36,3475.00,599.74,585.47,4.93,0000 0000 0000 0000 000000
2016-07-20 04:20:18,0.00,0.03,0.00,27.67,31.57,34.35,14.19,47.36,1014.66,2020.04,3423.08,3060.29,3475.00,600.02,585.67,4.98,0000 0000 0000 0000 000000
2016-07-20 04:25:20,-0.00,0.03,0.00,27.68,31.57,34.35,14.20,47.20,1014.66,2020.00,3423.04,3060.19,3475.00,599.86,585.49,5.03,0000 0000 0000 0000 000000
2016-07-20 04:30:21,0.00,0.03,0.00,27.69,31.57,34.34,14.24,47.34,1014.66,2020.03,3423.06,3060.27,3474.99,600.23,585.86,5.08,0000 0000 0000 0000 000000
2016-07-20 04:35:22,0.00,0.03,0.00,27.69,31.57,34.32,14.20,47.40,1014.66,2020.03,3423.02,3060.22,3474.99,599.92,585.58,5.13,0000 0000 0000 0000 000000
2016-07-20 04:40:23,0.00,0.03,0.00,27.68,31.57,34.32,14.26,47.38,1014.67,2020.03,3423.00,3060.09,3474.99,600.11,585.80,5.18,0000 0000 0000 0000 000000
2016-07-20 04:45:25,0.00,0.03,0.00,27.69,31.57,34.35,14.24,47.33,1014.68,2020.02,3423.00,3060.06,3474.97,600.14,585.80,5.23,0000 0000 0000 0000 000000
2016-07-20 04:50:26,0.00,0.03,0.00,27.69,31.57,34.35,14.26,47.29,1014.68,2020.00,3422.98,3060.00,3474.87,600.28,585.86,5.28,0000 0000 0000 0000 000000
2016-07-20 04:55:27,0.00,0.03,0.00,27.69,31.57,34.33,14.23,47.19,1014.73,2020.00,3422.98,3060.02,3474.77,600.02,585.63,5.33,0000 0000 0000 0000 000000
2016-07-20 05:00:28,0.00,0.03,0.00,27.70,31.57,34.29,14.23,47.28,1014.89,2020.00,3422.98,3060.01,3474.63,600.06,585.75,5.38,0000 0000 0000 0000 000000
2016-07-20 05:05:30,0.00,0.03,0.00,27.69,31.57,34.33,14.24,47.19,1015.15,2020.00,3422.97,3060.00,3474.46,600.06,585.94,5.43,0000 0000 0000 0000 000000
2016-07-20 05:10:31,-0.00,0.03,0.00,27.70,31.57,34.31,14.25,47.19,1015.15,2020.00,3422.96,3060.00,3474.41,600.16,585.97,5.48,0000 0000 0000 0000 000000
2016-07-20 05:15:32,0.01,0.03,0.00,27.70,31.58,34.31,14.25,47.16,1015.15,2020.00,3422.81,3060.00,3474.12,599.84,585.63,5.53,0000 0000 0000 0000 000000
2016-07-20 05:20:33,0.00,0.03,0.00,27.69,31.58,34.35,14.20,47.02,1015.16,2020.01,3422.68,3060.00,3474.10,599.88,585.83,5.58,0000 0000 0000 0000 000000
2016-07-20 05:25:34,-0.00,0.03,0.00,27.68,31.58,34.35,14.26,47.09,1015.16,2020.00,3422.51,3060.00,3474.05,599.87,585.73,5.63,0000 0000 0000 0000 000000
2016-07-20 05:30:36,-0.00,0.03,0.00,27.69,31.58,34.35,14.23,47.13,1015.15,2020.01,3422.50,3060.00,3474.11,599.94,585.74,5.68,0000 0000 0000 0000 000000
2016-07-20 05:35:37,-0.00,0.03,0.00,27.70,31.58,34.33,14.21,47.09,1015.16,2020.02,3422.61,3060.01,3474.17,600.15,586.02,5.73,0000 0000 0000 0000 000000
2016-07-20 05:40:38,0.00,0.03,0.00,27.69,31.58,34.37,14.28,47.08,1015.15,2020.01,3422.52,3060.01,3474.19,599.90,585.80,5.78,0000 0000 0000 0000 000000
2016-07-20 05:45:39,0.00,0.03,0.00,27.68,31.57,34.34,14.21,46.94,1015.15,2020.01,3422.22,3060.01,3474.09,599.99,585.88,5.84,0000 0000 0000 0000 000000
2016-07-20 05:50:40,0.00,0.03,0.00,27.68,31.57,34.35,14.17,47.26,1015.16,2020.01,3422.02,3060.00,3474.03,599.78,585.71,5.89,0000 0000 0000 0000 000000
2016-07-20 05:55:41,0.00,0.03,0.00,27.67,31.57,34.38,14.25,47.17,1015.16,2020.00,3422.03,3060.00,3474.02,599.66,585.52,5.94,0000 0000 0000 0000 000000
2016-07-20 06:00:43,0.00,0.03,0.00,27.66,31.57,34.36,14.19,46.98,1015.18,2020.00,3422.01,3060.00,3474.03,599.65,585.63,5.99,0000 0000 0000 0000 000000
2016-07-20 06:05:44,0.00,0.03,0.00,27.67,31.57,34.38,14.23,46.94,1015.38,2020.02,3422.03,3060.01,3474.02,599.62,585.75,6.04,0000 0000 0000 0000 000000
2016-07-20 06:10:45,-0.00,0.03,0.00,27.65,31.57,34.39,14.23,46.97,1015.36,2020.00,3422.02,3060.00,3474.01,600.08,586.18,6.09,0000 0000 0000 0000 000000
2016-07-20 06:15:46,0.00,0.03,0.00,27.67,31.56,34.40,14.24,47.14,1015.56,2020.01,3422.01,3060.00,3474.02,600.55,586.71,6.14,0000 0000 0000 0000 000000
2016-07-20 06:20:47,0.00,0.03,0.00,27.65,31.55,34.39,14.13,47.06,1015.61,2020.01,3422.00,3060.00,3474.01,599.61,585.78,6.19,0000 0000 0000 0000 000000
2016-07-20 06:25:49,0.00,0.03,0.00,27.63,31.55,34.38,14.24,47.07,1015.64,2020.01,3422.00,3060.00,3474.01,599.99,586.28,6.24,0000 0000 0000 0000 000000
2016-07-20 06:30:50,-0.00,0.03,0.00,27.63,31.55,34.36,14.16,47.01,1015.64,2020.02,3422.00,3060.00,3474.00,599.71,585.96,6.29,0000 0000 0000 0000 000000
2016-07-20 06:35:51,-0.00,0.03,0.00,27.62,31.55,34.36,14.25,47.12,1015.64,2020.01,3422.00,3060.02,3474.01,600.20,586.49,6.34,0000 0000 0000 0000 000000
2016-07-20 06:40:52,0.00,0.03,0.00,27.61,31.53,34.38,14.22,47.13,1015.64,2020.02,3422.00,3060.05,3474.03,600.02,586.38,6.39,0000 0000 0000 0000 000000
2016-07-20 06:45:54,0.00,0.03,0.00,27.59,31.52,34.37,14.27,47.24,1015.64,2020.01,3422.01,3060.07,3474.02,600.14,586.56,6.44,0000 0000 0000 0000 000000
2016-07-20 06:50:55,0.00,0.03,0.00,27.58,31.52,34.38,14.21,47.33,1015.65,2020.00,3422.00,3060.04,3474.01,599.62,585.99,6.49,0000 0000 0000 0000 000000
2016-07-20 06:55:56,-0.00,0.03,0.00,27.57,31.51,34.38,14.28,47.13,1015.66,2020.03,3422.01,3060.08,3474.03,599.99,586.45,6.54,0000 0000 0000 0000 000000
2016-07-20 07:00:57,-0.00,0.03,0.00,27.55,31.50,34.36,14.26,47.24,1015.65,2020.02,3422.00,3060.06,3474.01,599.90,586.40,6.59,0000 0000 0000 0000 000000
2016-07-20 07:05:59,0.01,0.03,0.00,27.55,31.50,34.36,14.26,47.21,1015.65,2020.03,3422.00,3060.07,3474.01,599.95,586.43,6.64,0000 0000 0000 0000 000000
2016-07-20 07:11:00,-0.01,0.03,0.00,27.52,31.50,34.35,14.23,47.29,1015.65,2020.03,3422.00,3060.19,3474.03,599.62,586.18,6.69,0000 0000 0000 0000 000000
2016-07-20 07:16:01,-0.00,0.03,0.00,27.52,31.48,34.34,14.27,47.13,1015.66,2020.06,3422.00,3060.43,3474.07,599.92,586.48,6.74,0000 0000 0000 0000 000000
2016-07-20 07:21:02,0.00,0.03,0.00,27.50,31.47,34.33,14.31,47.18,1015.66,2020.17,3422.02,3060.72,3474.33,600.08,586.59,6.79,0000 0000 0000 0000 000000
2016-07-20 07:26:04,-0.01,0.03,0.00,27.52,31.47,34.32,14.28,46.99,1015.66,2020.27,3422.05,3060.96,3474.75,600.24,586.79,6.84,0000 0000 0000 0000 000000
2016-07-20 07:31:04,0.01,0.03,0.00,27.51,31.45,34.34,14.28,47.43,1015.67,2020.31,3422.02,3060.94,3474.59,599.98,586.48,6.89,0000 0000 0000 0000 000000
2016-07-20 07:36:06,0.00,0.03,0.00,27.48,31.45,34.31,14.26,47.48,1015.68,2020.31,3422.05,3060.94,3474.60,599.82,586.57,6.94,0000 0000 0000 0000 000000
2016-07-20 07:41:07,-0.01,0.03,0.00,27.48,31.45,34.31,14.28,47.37,1015.75,2020.32,3422.04,3060.97,3474.72,599.89,586.55,6.99,0000 0000 0000 0000 000000
2016-07-20 07:46:09,0.01,0.03,0.00,27.49,31.43,34.28,14.23,47.15,1015.79,2020.39,3422.03,3060.98,3474.73,599.99,586.62,7.04,0000 0000 0000 0000 000000
2016-07-20 07:51:09,-0.01,0.03,0.00,27.47,31.42,34.29,14.25,47.10,1015.77,2020.48,3422.06,3060.98,3474.82,599.67,586.36,7.09,0000 0000 0000 0000 000000
2016-07-20 07:56:10,0.03,0.03,0.00,27.47,31.42,34.30,14.22,47.08,1015.83,2020.59,3422.09,3060.99,3474.88,599.99,586.60,7.14,0000 0000 0000 0000 000000
2016-07-20 08:01:12,0.00,0.03,0.00,27.45,31.41,34.27,14.31,47.24,1015.82,2020.76,3422.08,3060.99,3474.94,600.19,586.94,7.19,0000 0000 0000 0000 000000
2016-07-20 08:06:13,0.01,0.03,0.00,27.42,31.40,34.27,14.29,47.32,1016.01,2020.85,3422.19,3060.99,3474.98,600.20,587.13,7.24,0000 0000 0000 0000 000000
2016-07-20 08:11:14,-0.01,0.03,0.00,27.41,31.40,34.25,14.27,47.19,1016.11,2020.95,3422.68,3061.00,3474.98,600.22,587.15,7.29,0000 0000 0000 0000 000000
2016-07-20 08:16:15,0.00,0.03,0.00,27.41,31.38,34.25,14.27,47.20,1016.13,2020.98,3422.77,3061.02,3474.99,599.98,586.98,7.34,0000 0000 0000 0000 000000
2016-07-20 08:21:17,0.00,0.03,0.00,27.41,31.37,34.23,14.26,47.18,1016.13,2020.98,3422.46,3061.00,3474.99,600.15,587.17,7.39,0000 0000 0000 0000 000000
2016-07-20 08:26:18,-0.00,0.03,0.00,27.43,31.37,34.22,14.29,47.17,1016.13,2020.99,3422.73,3061.02,3474.99,600.30,587.31,7.44,0000 0000 0000 0000 000000
2016-07-20 08:31:19,-0.00,0.03,0.00,27.41,31.36,34.19,14.20,47.16,1016.13,2020.99,3422.57,3061.02,3474.99,599.77,586.83,7.49,0000 0000 0000 0000 000000
2016-07-20 08:36:20,0.00,0.03,0.00,27.40,31.35,34.21,14.26,47.11,1016.13,2020.99,3422.30,3061.02,3474.99,599.78,586.85,7.54,0000 0000 0000 0000 000000
2016-07-20 08:41:22,0.00,0.03,0.00,27.38,31.35,34.20,14.29,47.27,1016.13,2020.99,3422.22,3061.05,3474.99,600.48,587.64,7.59,0000 0000 0000 0000 000000
2016-07-20 08:46:23,0.00,0.03,0.00,27.35,31.33,34.20,14.25,47.50,1016.14,2020.99,3422.27,3061.08,3475.00,600.09,587.25,7.64,0000 0000 0000 0000 000000
2016-07-20 08:51:24,-0.00,0.03,0.00,27.33,31.32,34.20,14.28,47.17,1016.14,2020.99,3422.31,3061.16,3475.01,600.05,587.24,7.69,0000 0000 0000 0000 000000
2016-07-20 08:56:26,0.01,0.03,0.00,27.32,31.32,34.18,14.23,47.08,1016.14,2020.99,3422.11,3061.13,3475.00,600.18,587.29,7.74,0000 0000 0000 0000 000000
2016-07-20 09:01:27,-0.00,0.03,0.00,27.31,31.30,34.17,14.31,47.10,1016.19,2021.00,3422.21,3061.31,3475.01,600.03,587.21,7.79,0000 0000 0000 0000 000000
2016-07-20 09:06:28,-0.02,0.03,0.00,27.31,31.30,34.15,14.30,47.23,1016.26,2021.01,3422.71,3061.82,3475.08,600.16,587.36,7.84,0000 0000 0000 0000 000000
2016-07-20 09:11:29,0.00,0.03,0.00,27.30,31.28,34.12,14.23,47.18,1016.23,2021.02,3422.79,3061.94,3475.27,600.15,587.42,7.89,0000 0000 0000 0000 000000
2016-07-20 09:16:30,0.00,0.03,0.00,27.30,31.27,34.13,14.25,47.24,1016.42,2021.02,3422.92,3061.96,3475.24,599.74,587.21,7.94,0000 0000 0000 0000 000000
2016-07-20 09:21:31,0.00,0.03,0.00,27.29,31.26,34.10,14.20,47.30,1016.59,2021.06,3422.98,3061.99,3475.57,599.89,587.51,7.99,0000 0000 0000 0000 000000
2016-07-20 09:26:33,-0.00,0.03,0.00,27.28,31.25,34.11,14.30,47.42,1016.59,2021.08,3422.98,3061.99,3475.81,600.30,587.83,8.04,0000 0000 0000 0000 000000
2016-07-20 09:31:34,0.00,0.03,0.00,27.25,31.25,34.09,14.27,47.38,1016.61,2021.08,3422.97,3061.99,3475.80,599.83,587.49,8.09,0000 0000 0000 0000 000000
2016-07-20 09:36:35,0.00,0.03,0.00,27.24,31.22,34.07,14.24,47.46,1016.62,2021.12,3422.98,3061.99,3475.84,599.80,587.47,8.14,0000 0000 0000 0000 000000
2016-07-20 09:41:36,0.02,0.03,0.00,27.22,31.22,34.06,14.27,47.36,1016.62,2021.31,3422.98,3061.99,3475.90,599.95,587.54,8.19,0000 0000 0000 0000 000000
2016-07-20 09:46:37,-0.00,0.03,0.00,27.22,31.20,34.08,14.29,47.42,1016.62,2021.33,3422.91,3061.99,3475.88,600.14,587.75,8.24,0000 0000 0000 0000 000000
2016-07-20 09:51:38,0.02,0.03,0.00,27.21,31.20,34.06,14.32,47.33,1016.62,2021.60,3422.97,3061.99,3475.97,600.13,587.76,8.30,0000 0000 0000 0000 000000
2016-07-20 09:56:40,-0.01,0.03,0.00,27.20,31.18,34.04,14.28,47.48,1016.63,2021.57,3422.95,3062.00,3475.95,600.14,587.85,8.35,0000 0000 0000 0000 000000
2016-07-20 10:01:41,0.02,0.04,0.00,27.18,31.17,34.03,14.28,47.44,1016.63,2021.72,3422.99,3062.01,3475.98,599.99,587.77,8.40,0000 0000 0000 0000 000000
2016-07-20 10:06:42,0.00,0.04,0.00,27.18,31.15,34.02,14.31,47.43,1016.62,2021.78,3422.99,3062.05,3475.98,599.92,587.66,8.45,0000 0000 0000 0000 000000
2016-07-20 10:11:44,0.01,0.04,0.00,27.15,31.15,34.00,14.24,47.48,1016.63,2021.93,3422.99,3062.12,3475.99,599.83,587.62,8.50,0000 0000 0000 0000 000000
2016-07-20 10:16:45,0.00,0.04,0.00,27.14,31.13,34.01,14.30,47.33,1016.67,2021.92,3422.99,3062.10,3475.99,600.06,587.94,8.55,0000 0000 0000 0000 000000
2016-07-20 10:21:46,-0.00,0.04,0.00,27.11,31.12,34.01,14.28,47.29,1016.65,2021.97,3422.99,3062.39,3475.99,599.83,587.62,8.60,0000 0000 0000 0000 000000
2016-07-20 10:26:47,-0.00,0.04,0.00,27.10,31.10,33.99,14.30,47.33,1016.63,2021.99,3422.99,3062.55,3475.99,600.05,588.00,8.65,0000 0000 0000 0000 000000
2016-07-20 10:31:49,-0.00,0.04,0.00,27.07,31.09,33.97,14.23,47.29,1016.62,2021.99,3422.99,3062.75,3476.00,599.71,587.57,8.70,0000 0000 0000 0000 000000
2016-07-20 10:36:50,-0.00,0.04,0.00,27.05,31.07,33.94,14.32,47.45,1016.62,2021.99,3422.99,3062.92,3476.03,599.86,587.85,8.75,0000 0000 0000 0000 000000
2016-07-20 10:41:51,0.00,0.04,0.00,27.01,31.06,33.94,14.30,47.34,1016.62,2021.99,3423.01,3062.98,3476.15,600.30,588.26,8.80,0000 0000 0000 0000 000000
2016-07-20 10:46:52,0.00,0.04,0.00,27.00,31.05,33.94,14.32,47.46,1016.62,2021.99,3423.01,3062.99,3476.25,600.05,588.11,8.85,0000 0000 0000 0000 000000
2016-07-20 10:51:54,-0.00,0.03,0.00,26.98,31.02,33.91,14.32,47.38,1016.64,2022.00,3423.01,3062.99,3476.79,599.92,588.14,8.90,0000 0000 0000 0000 000000
2016-07-20 10:56:55,-0.01,0.03,0.00,26.98,31.01,33.91,14.31,47.40,1016.75,2022.01,3423.09,3063.01,3476.94,600.11,588.24,8.95,0000 0000 0000 0000 000000
2016-07-20 11:01:56,0.01,0.03,0.00,26.93,31.00,33.87,14.31,47.29,1016.68,2022.05,3423.10,3063.02,3476.98,600.10,588.50,9.00,0000 0000 0000 0000 000000
2016-07-20 11:06:57,0.00,0.04,0.00,26.92,30.97,33.87,14.20,47.29,1016.64,2022.18,3423.23,3063.08,3476.99,599.73,587.95,9.05,0000 0000 0000 0000 000000
2016-07-20 11:11:59,0.03,0.04,0.00,26.90,30.96,33.84,14.32,47.36,1016.76,2022.61,3423.68,3063.41,3476.99,600.19,588.59,9.10,0000 0000 0000 0000 000000
2016-07-20 11:17:00,0.01,0.04,0.00,26.88,30.95,33.82,14.28,47.15,1016.89,2022.73,3423.60,3063.49,3476.99,599.87,588.35,9.15,0000 0000 0000 0000 000000
2016-07-20 11:22:01,-0.00,0.04,0.00,26.85,30.92,33.78,14.28,47.18,1017.05,2022.83,3423.62,3063.56,3476.99,599.74,588.40,9.20,0000 0000 0000 0000 000000
2016-07-20 11:27:03,0.00,0.04,0.00,26.84,30.91,33.78,14.30,47.32,1017.09,2022.94,3423.88,3063.90,3477.01,599.64,588.40,9.25,0000 0000 0000 0000 000000
2016-07-20 11:32:04,0.00,0.04,0.00,26.82,30.89,33.77,14.32,47.36,1017.10,2022.98,3423.91,3063.96,3477.03,600.53,589.25,9.30,0000 0000 0000 0000 000000
2016-07-20 11:37:06,0.00,0.04,0.00,26.80,30.87,33.76,14.29,47.28,1017.10,2022.99,3423.91,3063.98,3477.05,599.99,588.67,9.35,0000 0000 0000 0000 000000
2016-07-20 11:42:07,-0.00,0.04,0.00,26.79,30.85,33.74,14.35,47.34,1017.12,2022.99,3423.89,3063.98,3477.10,599.95,588.83,9.40,0000 0000 0000 0000 000000
2016-07-20 11:47:08,-0.00,0.04,0.00,26.78,30.83,33.72,14.31,47.27,1017.12,2022.99,3423.97,3063.98,3477.42,599.90,588.74,9.45,0000 0000 0000 0000 000000
2016-07-20 11:52:10,0.00,0.04,0.00,26.73,30.82,33.69,14.33,47.27,1017.13,2023.00,3423.98,3063.99,3477.88,600.06,588.88,9.50,0000 0000 0000 0000 000000
2016-07-20 11:57:11,0.00,0.04,0.00,26.71,30.80,33.69,14.26,47.31,1017.14,2023.01,3423.99,3064.01,3477.98,599.55,588.68,9.55,0000 0000 0000 0000 000000
2016-07-20 12:02:12,0.00,0.04,0.00,26.69,30.78,33.66,14.29,47.29,1017.12,2023.01,3423.99,3064.02,3477.97,599.94,588.96,9.60,0000 0000 0000 0000 000000
2016-07-20 12:07:14,0.00,0.04,0.00,26.68,30.76,33.64,14.36,47.24,1017.12,2023.03,3423.99,3064.02,3477.99,600.39,589.43,9.65,0000 0000 0000 0000 000000
2016-07-20 12:12:15,-0.00,0.04,0.00,26.67,30.75,33.64,14.35,47.30,1017.12,2023.06,3423.99,3064.07,3477.99,599.98,589.00,9.70,0000 0000 0000 0000 000000
2016-07-20 12:17:16,0.02,0.04,0.00,26.63,30.72,33.61,14.32,47.36,1017.11,2023.27,3423.99,3064.21,3477.99,600.02,589.20,9.75,0000 0000 0000 0000 000000
2016-07-20 12:22:17,0.03,0.04,0.00,26.60,30.70,33.60,14.29,47.44,1017.11,2023.65,3424.00,3064.76,3478.01,599.72,588.97,9.80,0000 0000 0000 0000 000000
2016-07-20 12:27:18,0.00,0.04,0.00,26.58,30.68,33.57,14.36,47.48,1017.11,2023.90,3424.00,3064.97,3478.09,600.11,589.32,9.85,0000 0000 0000 0000 000000
2016-07-20 12:32:19,0.01,0.04,0.00,26.57,30.66,33.56,14.32,47.42,1017.11,2023.97,3424.01,3064.99,3478.23,599.81,588.98,9.90,0000 0000 0000 0000 000000
2016-07-20 12:37:20,-0.00,0.04,0.00,26.55,30.65,33.53,14.43,47.32,1017.11,2023.98,3424.06,3064.99,3478.53,600.40,589.64,9.95,0000 0000 0000 0000 000000
2016-07-20 12:42:21,-0.00,0.04,0.00,26.52,30.62,33.52,14.33,47.42,1017.11,2023.99,3424.25,3064.99,3478.94,600.10,589.38,10.00,0000 0000 0000 0000 000000
2016-07-20 12:47:23,-0.00,0.04,0.00,26.50,30.60,33.49,14.34,47.40,1017.11,2023.99,3424.47,3065.00,3478.98,599.97,589.31,10.05,0000 0000 0000 0000 000000
2016-07-20 12:52:24,-0.01,0.04,0.00,26.47,30.58,33.47,14.28,47.48,1017.11,2023.99,3424.77,3065.06,3478.99,599.89,589.26,10.10,0000 0000 0000 0000 000000
2016-07-20 12:57:25,-0.00,0.04,0.00,26.45,30.56,33.45,14.33,47.35,1017.11,2023.99,3424.71,3065.09,3478.99,600.26,589.68,10.15,0000 0000 0000 0000 000000
2016-07-20 13:02:26,-0.01,0.04,0.00,26.43,30.54,33.45,14.36,47.52,1017.11,2024.02,3424.95,3065.55,3479.00,599.87,589.26,10.20,0000 0000 0000 0000 000000